Tavèrnoles





Hora UTC 17:00
Temperatura 5.1 ºC
Humedad 84.0 %
Presión 1014.4 hPa
Pluja 0.0 mm
Velocidad viento 0.0 km/h
Dirección viento WNW
Radiación solar 0.0 W/m²

Datos diarios 2021-12-04



Hora UTC (invierno +1h; verano +2h)
Temperatura (ºC) Humedad (%) Presión (hPa) Velocidad viento (km/h) Precipitación (mm) Radiación solar (W/m²)
Hora UTC Aire Humedad Presión Vel. Dir. Vel. Max Dir. Intent. máx 5 min. Rad. Sol.
00:05 0.9 87.0 1021.0 0.0 S 0.0 0.0 0.0
00:10 0.9 87.0 1020.8 0.0 S 1.6 0.0 0.0
00:15 1.0 87.0 1020.8 0.0 S 1.6 0.0 0.0
00:20 0.9 87.0 1020.6 0.0 S 0.0 0.0 0.0
00:25 0.9 87.0 1020.5 0.0 S 3.2 0.0 0.0
00:30 0.8 87.0 1020.5 0.0 S 3.2 0.0 0.0
00:35 0.8 87.0 1020.4 0.0 S 3.2 0.0 0.0
00:40 0.7 87.0 1020.1 0.0 S 3.2 0.0 0.0
00:45 0.6 87.0 1019.9 0.0 S 1.6 0.0 0.0
00:50 0.6 86.0 1019.8 0.0 S 1.6 0.0 0.0
00:55 0.4 86.0 1020.0 0.0 S 1.6 0.0 0.0
01:00 0.3 87.0 1019.9 0.0 S 0.0 0.0 0.0
01:05 0.2 87.0 1019.8 0.0 S 0.0 0.0 0.0
01:10 0.1 87.0 1019.7 0.0 S 3.2 0.0 0.0
01:15 0.1 87.0 1019.6 0.0 S 3.2 0.0 0.0
01:20 -0.1 87.0 1019.5 1.6 S 3.2 0.0 0.0
01:25 -0.2 88.0 1019.6 0.0 S 3.2 0.0 0.0
01:30 -0.2 88.0 1019.7 1.6 S 3.2 0.0 0.0
01:35 -0.3 87.0 1019.5 3.2 S 4.8 0.0 0.0
01:40 -0.5 88.0 1019.7 0.0 S 4.8 0.0 0.0
01:45 -0.6 88.0 1019.7 0.0 S 4.8 0.0 0.0
01:50 -0.6 89.0 1019.6 3.2 S 3.2 0.0 0.0
01:55 -0.6 89.0 1019.7 0.0 S 4.8 0.0 0.0
02:00 -0.6 89.0 1019.6 0.0 S 4.8 0.0 0.0
02:05 -0.6 89.0 1019.6 0.0 S 4.8 0.0 0.0
02:10 -0.6 89.0 1019.5 0.0 S 4.8 0.0 0.0
02:15 -0.6 89.0 1019.5 0.0 S 3.2 0.0 0.0
02:20 -0.6 89.0 1019.5 0.0 S 1.6 0.0 0.0
02:25 -0.6 90.0 1019.6 0.0 S 0.0 0.0 0.0
02:30 -0.6 89.0 1019.6 0.0 S 1.6 0.0 0.0
02:35 -0.7 89.0 1019.7 0.0 S 1.6 0.0 0.0
02:40 -0.6 90.0 1019.5 0.0 S 1.6 0.0 0.0
02:45 -0.6 90.0 1019.4 0.0 S 1.6 0.0 0.0
02:50 -0.6 90.0 1019.4 0.0 S 4.8 0.0 0.0
02:55 -0.5 90.0 1019.3 0.0 S 4.8 0.0 0.0
03:00 -0.4 90.0 1019.3 0.0 S 1.6 0.0 0.0
03:05 -0.4 89.0 1019.3 0.0 S 1.6 0.0 0.0
03:10 -0.5 89.0 1019.1 0.0 S 0.0 0.0 0.0
03:10 -0.6 89.0 1019.2 0.0 S 0.0 0.0 0.0
03:20 -0.6 90.0 1019.2 0.0 S 0.0 0.0 0.0
03:25 -0.6 90.0 1019.1 0.0 S 0.0 0.0 0.0
03:30 -0.6 90.0 1019.1 0.0 S 1.6 0.0 0.0
03:35 -0.5 90.0 1019.1 0.0 S 1.6 0.0 0.0
03:40 -0.3 91.0 1018.9 0.0 S 1.6 0.0 0.0
03:45 -0.2 91.0 1018.8 0.0 S 1.6 0.0 0.0
03:50 0.1 92.0 1018.7 0.0 S 0.0 0.0 0.0
03:55 0.2 92.0 1018.6 0.0 S 0.0 0.0 0.0
04:00 0.3 91.0 1018.5 0.0 S 4.8 0.0 0.0
04:05 0.6 92.0 1018.5 0.0 S 4.8 0.0 0.0
04:10 0.8 92.0 1018.4 0.0 S 0.0 0.0 0.0
04:15 0.9 92.0 1018.3 0.0 S 3.2 0.0 0.0
04:20 1.1 91.0 1018.3 1.6 WNW 4.8 0.0 0.0
04:25 1.2 91.0 1018.3 0.0 NNE 4.8 0.0 0.0
04:30 1.3 91.0 1018.3 0.0 NNE 4.8 0.0 0.0
04:35 1.3 90.0 1018.3 0.0 NNE 0.0 0.0 0.0
04:40 1.3 90.0 1018.5 0.0 NNE 0.0 0.0 0.0
04:45 1.3 90.0 1018.5 0.0 NNE 0.0 0.0 0.0
04:50 1.3 90.0 1018.4 0.0 NNE 0.0 0.0 0.0
04:55 1.4 90.0 1018.5 0.0 ESE 1.6 0.0 0.0
05:00 1.4 90.0 1018.4 0.0 ESE 1.6 0.0 0.0
05:05 1.6 90.0 1018.3 0.0 ESE 0.0 0.0 0.0
05:10 1.6 90.0 1018.4 0.0 ESE 0.0 0.0 0.0
05:15 1.6 89.0 1018.5 0.0 ESE 0.0 0.0 0.0
05:20 1.6 89.0 1018.5 0.0 ESE 0.0 0.0 0.0
05:25 1.7 89.0 1018.6 1.6 ESE 1.6 0.0 0.0
05:30 1.7 89.0 1018.6 0.0 ESE 1.6 0.0 0.0
05:35 1.7 89.0 1018.7 0.0 ESE 1.6 0.0 0.0
05:40 1.7 89.0 1018.7 0.0 ESE 0.0 0.0 0.0
05:45 1.7 89.0 1018.7 0.0 ESE 0.0 0.0 0.0
05:50 1.7 89.0 1018.8 0.0 ESE 0.0 0.0 0.0
05:50 1.7 89.0 1018.7 0.0 ESE 0.0 0.0 0.0
05:55 1.8 89.0 1018.8 0.0 ESE 0.0 0.0 0.0
06:00 1.8 89.0 1018.6 0.0 ESE 0.0 0.0 0.0
06:05 1.8 89.0 1018.6 0.0 ESE 0.0 0.0 0.0
06:10 1.8 89.0 1018.5 0.0 ESE 0.0 0.0 0.0
06:15 1.8 89.0 1018.4 0.0 ESE 0.0 0.0 0.0
06:20 1.8 89.0 1018.3 0.0 ESE 0.0 0.0 0.0
06:25 1.8 89.0 1018.3 0.0 ESE 0.0 0.0 0.0
06:30 1.8 89.0 1018.4 0.0 ESE 0.0 0.0 0.0
06:35 1.8 89.0 1018.4 0.0 ESE 0.0 0.0 0.0
06:40 1.9 89.0 1018.2 0.0 ESE 1.6 0.0 0.0
06:45 2.0 89.0 1018.4 0.0 S 4.8 0.0 0.0
06:50 2.1 88.0 1018.3 1.6 S 4.8 0.0 0.0
06:55 2.2 88.0 1018.2 3.2 S 4.8 0.0 0.0
07:00 2.3 88.0 1018.1 0.0 S 4.8 0.0 0.0
07:05 2.3 87.0 1018.1 0.0 S 4.8 0.0 0.0
07:10 2.3 87.0 1018.0 0.0 S 3.2 0.0 0.0
07:15 2.4 87.0 1018.0 0.0 S 3.2 0.0 0.0
07:20 2.4 87.0 1017.9 0.0 S 1.6 0.0 5.0
07:25 2.4 87.0 1018.0 0.0 S 1.6 0.0 5.0
07:30 2.4 87.0 1018.1 0.0 S 1.6 0.0 0.0
07:35 2.4 86.0 1018.1 0.0 S 3.2 0.0 7.0
07:40 2.5 86.0 1018.1 0.0 S 3.2 0.0 7.0
07:45 2.6 86.0 1018.2 0.0 S 3.2 0.0 9.0
07:50 2.6 86.0 1017.9 1.6 S 3.2 0.0 16.0
07:55 2.7 87.0 1018.0 0.0 ESE 4.8 0.0 14.0
08:00 2.7 87.0 1017.9 0.0 S 6.4 0.0 23.0
08:05 2.9 87.0 1018.0 1.6 S 6.4 0.0 21.0
08:15 3.0 87.0 1018.0 0.0 S 3.2 0.0 18.0
08:20 3.2 87.0 1017.9 0.0 S 3.2 0.0 16.0
08:25 3.3 87.0 1017.8 0.0 S 3.2 0.0 18.0
08:30 3.3 87.0 1017.8 1.6 S 4.8 0.0 19.0
08:35 3.4 87.0 1017.8 0.0 S 4.8 0.0 21.0
08:40 3.6 87.0 1017.7 0.0 S 3.2 0.0 30.0
08:45 3.8 87.0 1017.5 0.0 S 3.2 0.0 39.0
08:50 3.9 88.0 1017.3 0.0 S 3.2 0.0 39.0
08:55 4.1 88.0 1017.3 0.0 S 0.0 0.0 49.0
09:00 4.2 87.0 1017.2 0.0 S 0.0 0.0 42.0
09:05 4.3 87.0 1017.1 0.0 S 0.0 0.0 40.0
09:10 4.4 86.0 1017.1 0.0 S 1.6 0.0 47.0
09:15 4.4 85.0 1016.9 0.0 S 1.6 0.0 58.0
09:20 4.6 86.0 1017.1 0.0 NW 1.6 0.0 44.0
09:25 4.6 86.0 1017.1 0.0 NW 1.6 0.0 51.0
09:30 4.8 86.0 1017.3 0.0 NW 1.6 0.0 47.0
09:35 4.9 86.0 1017.2 0.0 NW 0.0 0.0 62.0
09:40 5.1 86.0 1017.3 0.0 NW 0.0 0.0 60.0
09:45 5.2 86.0 1017.3 0.0 NW 0.0 0.0 60.0
09:50 5.4 86.0 1017.1 0.0 NW 0.0 0.0 79.0
09:55 5.6 85.0 1017.0 0.0 NW 3.2 0.0 74.0
10:00 5.7 85.0 1016.9 3.2 NNE 6.4 0.0 79.0
10:05 5.9 84.0 1016.9 3.2 ENE 6.4 0.0 156.0
10:10 6.0 83.0 1016.9 6.4 N 8.0 0.0 135.0
10:15 6.1 83.0 1016.9 4.8 N 8.0 0.0 97.0
10:20 6.2 83.0 1016.7 0.0 ESE 8.0 0.0 151.0
10:25 6.4 83.0 1016.6 0.0 N 8.0 0.0 248.0
10:30 6.7 82.0 1016.5 4.8 N 8.0 0.0 211.0
10:35 6.8 81.0 1016.5 3.2 N 8.0 0.0 179.0
10:40 7.0 82.0 1016.4 4.8 NNW 6.4 0.0 359.0
10:45 7.3 81.0 1016.2 4.8 NNE 8.0 0.0 399.0
10:50 7.6 80.0 1016.2 1.6 NNE 8.0 0.0 399.0
10:55 7.8 80.0 1016.2 4.8 N 8.0 0.0 225.0
11:00 8.0 80.0 1016.1 3.2 N 8.0 0.0 285.0
11:05 8.2 78.0 1016.1 1.6 NNE 9.7 0.0 258.0
11:10 8.3 79.0 1015.9 6.4 NE 9.7 0.0 318.0
11:15 8.4 77.0 1015.9 3.2 N 12.9 0.0 401.0
11:20 8.4 78.0 1015.6 1.6 N 12.9 0.0 513.0
11:25 8.6 78.0 1015.5 6.4 N 9.7 0.0 267.0
11:30 8.6 78.0 1015.6 0.0 NNW 9.7 0.0 220.0
11:30 8.6 78.0 1015.5 0.0 NW 8.0 0.0 186.0
11:35 8.6 77.0 1015.3 1.6 NNW 8.0 0.0 183.0
11:40 8.6 78.0 1015.5 1.6 NNW 6.4 0.0 179.0
11:45 8.7 78.0 1015.4 1.6 NW 6.4 0.0 236.0
11:50 8.8 77.0 1015.2 6.4 N 8.0 0.0 204.0
11:55 8.8 77.0 1015.1 0.0 NNW 8.0 0.0 174.0
12:00 8.8 77.0 1015.0 0.0 N 8.0 0.0 195.0
12:05 8.9 76.0 1015.0 0.0 NNW 4.8 0.0 236.0
12:10 8.9 76.0 1014.8 0.0 N 9.7 0.0 190.0
12:15 9.0 76.0 1014.4 0.0 N 9.7 0.0 149.0
12:20 9.1 76.0 1014.1 0.0 NNE 4.8 0.0 146.0
12:25 9.1 76.0 1014.2 0.0 WNW 4.8 0.0 171.0
12:30 9.3 75.0 1014.3 0.0 ENE 4.8 0.0 176.0
12:35 9.4 76.0 1014.5 0.0 NW 4.8 0.0 149.0
12:45 9.5 75.0 1014.1 0.0 NW 4.8 0.0 132.0
12:50 9.6 75.0 1014.2 0.0 NW 4.8 0.0 121.0
12:55 9.6 75.0 1014.2 0.0 NW 1.6 0.0 107.0
13:00 9.6 75.0 1014.5 1.6 NW 1.6 0.0 97.0
13:05 9.6 74.0 1014.4 0.0 NW 3.2 0.0 77.0
13:10 9.5 75.0 1014.7 0.0 NW 3.2 0.0 74.0
13:15 9.5 75.0 1014.4 0.0 NW 1.6 0.0 76.0
13:20 9.4 74.0 1014.4 0.0 NW 0.0 0.0 63.0
13:25 9.4 75.0 1014.4 0.0 NW 0.0 0.0 58.0
13:30 9.3 75.0 1014.3 0.0 NW 0.0 0.0 49.0
13:35 9.3 74.0 1014.1 0.0 NW 0.0 0.0 46.0
13:40 9.3 75.0 1014.1 0.0 NW 0.0 0.0 44.0
13:45 9.2 75.0 1014.1 0.0 NW 1.6 0.0 46.0
13:50 9.1 76.0 1014.4 0.0 NW 1.6 0.0 51.0
13:55 9.1 76.0 1014.4 0.0 NW 0.0 0.0 51.0
14:00 9.0 77.0 1014.5 0.0 NW 0.0 0.0 47.0
14:05 9.0 77.0 1014.1 0.0 NW 1.6 0.0 46.0
14:10 8.9 77.0 1014.1 0.0 NW 1.6 0.0 42.0
14:15 8.9 77.0 1014.0 0.0 NW 0.0 0.0 42.0
14:20 8.9 77.0 1014.0 0.0 NW 0.0 0.0 40.0
14:25 8.9 78.0 1014.0 0.0 NW 0.0 0.0 40.0
14:30 8.8 78.0 1014.1 0.0 NW 0.0 0.0 44.0
14:35 8.8 78.0 1013.7 0.0 NW 0.0 0.0 49.0
14:40 8.8 78.0 1013.7 0.0 NW 0.0 0.0 44.0
14:45 8.8 79.0 1013.9 0.0 NW 0.0 0.0 44.0
14:50 8.7 79.0 1013.6 0.0 NW 0.0 0.0 46.0
14:55 8.7 79.0 1013.8 0.0 NW 0.0 0.0 46.0
15:00 8.7 79.0 1014.0 0.0 NW 0.0 0.0 39.0
15:05 8.6 79.0 1014.0 0.0 NW 0.0 0.0 37.0
15:10 8.6 79.0 1014.0 0.0 NW 0.0 0.0 37.0
15:15 8.5 79.0 1013.8 0.0 NW 1.6 0.0 42.0
15:20 8.4 79.0 1013.9 0.0 NW 1.6 0.0 39.0
15:25 8.3 79.0 1013.9 0.0 NW 0.0 0.0 33.0
15:30 8.2 80.0 1013.9 0.0 NW 0.0 0.0 28.0
15:35 8.2 80.0 1014.0 0.0 NW 0.0 0.0 25.0
15:40 8.1 80.0 1014.1 0.0 NW 0.0 0.0 21.0
15:45 8.0 80.0 1014.0 0.0 NW 0.0 0.0 21.0
15:50 7.8 80.0 1014.0 0.0 NW 0.0 0.0 21.0
15:55 7.7 81.0 1014.1 0.0 NW 0.0 0.0 18.0
16:00 7.6 81.0 1014.3 0.0 NW 0.0 0.0 12.0
16:05 7.3 81.0 1014.4 0.0 NW 0.0 0.0 12.0
16:10 7.2 82.0 1014.3 0.0 NW 0.0 0.0 9.0
16:15 6.9 82.0 1014.3 0.0 NW 0.0 0.0 7.0
16:20 6.7 82.0 1014.3 0.0 NW 0.0 0.0 5.0
16:25 6.6 82.0 1014.3 0.0 NW 0.0 0.0 5.0
16:30 6.4 82.0 1014.2 0.0 NW 0.0 0.0 0.0
16:35 6.1 83.0 1014.3 0.0 NW 0.0 0.0 0.0
16:40 5.8 85.0 1014.3 0.0 NW 0.0 0.0 0.0
16:45 5.6 84.0 1014.3 0.0 WNW 0.0 0.0 0.0
16:50 5.4 85.0 1014.3 0.0 WNW 0.0 0.0 0.0
16:55 5.3 84.0 1014.3 0.0 WNW 0.0 0.0 0.0
17:00 5.1 84.0 1014.4 0.0 WNW 0.0 0.0 0.0
Máxima 9.6 92.0 1021.0 6.4 N 12.9 0.0 513.0
Mínima -0.7 74.0 1013.6
Total 0.0